Location: Newark
(45.2500°N, 7.5833°E)
Time: 18:08:58
(UTC+00:00)

NUDT-PHONESAT - Pass Details

Date: 23 February 2020
Orbit: 486 x 502 km, 97.4° (Epoch: 05 April)

Event Time Altitude Azimuth Distance (km) Brightness Sun altitude
Rises 05:15:29 0° 27° (NNE) 2,591 ? -11.9°
Reaches altitude 10° 05:17:59 10° 44° (NE) 1,705 ? -11.5°
Maximum altitude 05:20:45 20° 94° (E) 1,194 ? -11.0°
Drops below altitude 10° 05:23:32 10° 143° (SE) 1,700 ? -10.5°
Sets 05:26:01 0° 161° (SSE) 2,581 ? -10.1°
